Powrót do katalogu

STARLINK-33783

AktywnyŁącznośćVLEO
NORAD 63712·PAYLOAD·🇺🇸 United States

Wystrzelony Apr 28, 2025 z Vandenberg Space Force Base

Loading…

Następne Przeloty (najbliższe 24 godziny)

TLE

ŚwieżeSource: CelesTrak SupGP

Epoka: Sep 15, 2026, 02:10 UTC

1 63712C 25087R   26258.09076389 -.00023157  00000+0 -74474-3 0  2582
2 63712  53.1583  58.5231 0001142  86.9288 354.3713 15.31709927    10

Śledź STARLINK-33783 w czasie rzeczywistym z AllMySat

Download on the App Store